COSMOS 2251 DEB, 35987

Orbit data source: Space-Track

COSMOS 2251 DEB, 35987 is space debris in LEO originally from a launch on Wed, 16 Jun 1993 UTC launched from the Plesetsk Missile And Space Complex (PKMTR). The debris from Iridium 33, an American commercial communications satellite, has been tracked extensively since its accidental collision with the defunct Russian satellite Cosmos 2251 in 2009. This event, occurring at high speed in low Earth orbit (LEO), generated thousands of pieces of space debris, significantly increasing the risk of further collisions. The Iridium 33 debris cloud has impacted space traffic management and orbital debris mitigation strategies, making it a subject of ongoing study in space situational awareness.

Loading next visibility...
Identifier
35987, 1993-036AWD
Orbit
LEO
Country
Flag of CISCIS
Related business
Manufacturer
Unknown
Mission
Spacecraft
Bus & Motor
Unknown
Mass
Unknown
Launch date (UTC)
1993-06-16 (32 years ago)
Launch vehicle
Unknown
Launch site
Plesetsk Missile And Space Complex (PKMTR)
Object type
Payload
Rocket body
Debris
Shape & HBR
Unknown shape, 0.1 m
Radar Cross Section
Small (<0.1 m²)

Expand to show TLE details & history
Last TLE update: 9 hours ago

TLE from 9 hours ago
0 COSMOS 2251 DEB
1 35987U 93036AWD 25299.74748966  .00005230  00000-0  15560-2 0  9990
2 35987  74.0009  54.0843 0048766 191.8757 168.1254 14.42706273603874
Epoch: 2025-10-26T17:56Z
TLE epoch observation values (Epoch: 2025-10-26T17:56:23.106Z)
Latitude
-0.00003°
Longitude
109.62877°
Altitude
786.216 km
Speed
7.443 km/s
True Right ascension
03h 36m 20s
True Declination
0° 00' 00"
Sunlit
Object was in full shadow at epoch
Visualization orbit readout
Latitude
Unknown
Longitude
Unknown
Altitude
Unknown
Speed
Unknown
Apparent Right ascension
Unknown
Apparent Declination
Unknown
Sunlit
N/A
Visualization observer readout
Local Sidereal Time
21:56:11
Azimuth
Unknown
Elevation
Unknown
Doppler factor
Unknown
Orbital elements
Apogee altitude
781.938 km
Perigee altitude
712.443 km
Semi-major axis
7,125.327 km
Eccentricity
0.00488
Inclination
74.0009°
RAAN
54.0843°
Arg. of periapsis
191.8757°
True anomaly
168.23971°
Mean anomaly
168.1254°
Eccentric anomaly
168.18262°
Mean motion
3.60858 °/min
Orbital period
99.76 mins
BSTAR
0.001556
Loading maneuver chart data...
Computing Atmospheric mass density...

Documentation

Showing up to 5 results
|